DW9615 Weather Reports


time (UTC)temp
C
wind
direction
speed
KPH
gust
KPH
rain 1hr
cm
rain 24hr
cm
rain mn
cm
humidity
%
barometer
mb
20260504224530 22 108 0.0 3.2 0.00 0.00 0.00 77 1015.5
20260504223027 21 179 0.0 0.0 0.00 0.00 0.00 64 1015.5
20260504221523 19 221 0.0 0.0 0.00 0.00 0.00 1 1015.5
20260504220018 18 242 0.0 0.0 0.00 0.00 0.00 1 1015.4
20260504214513 17 194 0.0 0.0 0.00 0.00 0.00 1 1015.1
20260504213028 17 179 0.0 0.0 0.00 0.00 0.00 1 1015.1
20260504211511 17 188 0.0 0.0 0.00 0.00 0.00 1 1014.8
20260504210101 16 148 0.0 0.0 0.00 0.00 0.00 1 1014.6
20260504204557 16 148 0.0 0.0 0.00 0.00 0.00 1 1014.6
20260504203112 16 147 0.0 0.0 0.00 0.00 0.00 1 1014.3
20260504201547 15 147 0.0 0.0 0.00 0.00 0.00 1 1014.2
20260504200046 16 147 0.0 0.0 0.00 0.00 0.00 1 1014.1
20260504194549 16 147 0.0 0.0 0.00 0.00 0.00 1 1013.7
20260504193040 16 148 0.0 0.0 0.00 0.00 0.00 1 1013.5
20260504191529 16 148 0.0 0.0 0.00 0.00 0.00 1 1013.3
20260504190027 16 148 0.0 0.0 0.00 0.00 0.00 1 1013.3
20260504184521 16 148 0.0 0.0 0.00 0.00 0.00 1 1013.1
20260504183021 16 148 0.0 0.0 0.00 0.00 0.00 1 1013.1
20260504181512 16 148 0.0 0.0 0.00 0.00 0.00 1 1013.2
20260504180008 16 148 0.0 0.0 0.00 0.00 0.00 1 1013.3
20260504174503 16 148 0.0 0.0 0.00 0.00 0.00 1 1013.4
20260504173109 17 148 0.0 0.0 0.00 0.00 0.00 1 1013.5
20260504171555 17 148 0.0 0.0 0.00 0.00 0.00 1 1013.5
20260504081533 24 89 0.0 0.0 0.00 0.00 0.00 77 1013.4
20260504050010 27 175 8.0 22.5 0.00 0.00 0.00 64 1012.1
20260504044517 27 179 8.0 17.7 0.00 0.00 0.00 63 1012.0
20260504043004 28 32 6.4 19.3 0.00 0.00 0.00 62 1012.1
20260504041557 28 64 6.4 17.7 0.00 0.00 0.00 61 1012.0
20260504040053 27 56 8.0 19.3 0.00 0.00 0.00 60 1012.1
20260504034554 28 14 8.0 20.9 0.00 0.00 0.00 58 1012.3
20260504033053 28 87 1.6 24.1 0.00 0.00 0.00 61 1012.4
20260504031541 28 185 0.0 17.7 0.00 0.00 0.00 61 1012.7
20260504030035 28 39 4.8 19.3 0.00 0.00 0.00 61 1013.0
20260504024533 28 64 3.2 16.1 0.00 0.00 0.00 58 1013.2
20260504023027 28 66 4.8 20.9 0.00 0.00 0.00 62 1013.3
20260504021531 28 102 3.2 12.9 0.00 0.00 0.00 63 1013.6
20260504020020 28 170 3.2 16.1 0.00 0.00 0.00 61 1013.9
20260504014515 28 84 3.2 14.5 0.00 0.00 0.00 63 1014.3
20260504013010 27 122 0.0 11.3 0.00 0.00 0.00 64 1014.5
20260504011503 27 53 1.6 17.7 0.00 0.00 0.00 66 1014.6
20260504010109 27 75 6.4 19.3 0.00 0.00 0.00 66 1014.8
20260504004556 27 129 3.2 14.5 0.00 0.00 0.00 68 1015.0
20260504003052 27 70 1.6 12.9 0.00 0.00 0.00 68 1015.1
20260504001606 27 175 0.0 16.1 0.00 0.00 0.00 69 1015.2
20260504000043 26 117 3.2 17.7 0.00 0.00 0.00 70 1015.3
20260503234537 26 146 1.6 16.1 0.00 0.00 0.00 72 1015.2
20260503233034 26 128 1.6 17.7 0.00 0.00 0.00 72 1015.0
20260503231529 26 140 1.6 9.7 0.00 0.00 0.00 74 1014.8
20260503230025 25 62 0.0 11.3 0.00 0.00 0.00 76 1014.8